Track STARLINK-3203 now! 10-day predictions STARLINK-3203 is classified as:
1 49761U 21115AP 22175.47872600 .00000629 00000-0 57599-4 0 9994 2 49761 53.2191 98.4254 0002038 51.3684 308.7491 15.08840278 31236